User: anonymous   Login
Location: Unspecified
(0.0000°N, 0.0000°E)
Time: 05:32:59
(UTC+00:00)
Language:

M3MSAT - Orbit

View from above orbital plane
View from above orbital plane
View from above satellite
View from above satellite

Ground track
Ground track

The orbit data is extracted from the following two-line orbital elements,

1 41605U 16040G   18267.59322244 +.00000563 +00000-0 +28651-4 0  9992
2 41605 097.4037 328.3578 0010743 250.9973 109.0099 15.20777223125242
Epoch (UTC): 24 September 2018 14:14:14
Eccentricity: 0.0010743
inclination: 97.4037°
perigee height: 496 km
apogee height: 511 km
right ascension of ascending node: 328.3578°
argument of perigee: 250.9973°
revolutions per day: 15.20777223
mean anomaly at epoch: 109.0099°
orbit number at epoch: 12524

The dashed part of the orbit path shows where the satellite is in the earth's shadow,  

DLR